Weather Roundup
Issued by NWS Springfield, MO

Home | Current Version | Previous Version | Text Only | Print | Product List | Glossary On
Versions: 1 2 3 4 5 6 7 8 9 10 11 12 13 14 15 16 17 18 19 20 21 22 23 24 25 26 27 28 29 30 31 32 33 34 35 36 37 38 39 40 41 42 43 44 45 46 47 48 49 50
000
NZUS99 KSGF 232007
HRRSGF

HOURLY WEATHER
NATIONAL WEATHER SERVICE SPRINGFIELD MO
300 PM CDT MON APR 23 2018

......SGF CWA......

CITY           SKY/WX    TMP DP  RH WIND       PRES   REMARKS
SPRINGFIELD    MOSUNNY   67  45  45 N15G28    29.96S
JOPLIN         SUNNY     71  48  43 N16       30.00F
WEST PLAINS    CLOUDY    57  51  80 N14G24    29.93S
ROLLA          CLOUDY    57  50  77 NE14      29.98S
OSAGE BEACH    CLOUDY    68  47  46 NE15G23   29.96F
BRANSON        CLOUDY    64  46  52 NW15G24   29.95R

......SURROUNDING SGF CWA......

CITY           SKY/WX    TMP DP  RH WIND       PRES   REMARKS
CHANUTE        CLOUDY    70  47  43 N8        30.04F
PARSONS        MOSUNNY   73  49  42 N9        30.04F
COFFEYVILLE    SUNNY     73  49  42 N10       30.03F
EMPORIA        SUNNY     71  41  33 E10       30.06F
GROVE OK       SUNNY     72  43  35 N10G16    30.01F
ROGERS AR      MOSUNNY   69  47  45 N13       29.98F
SILOAM SPRINGS MOSUNNY   68  50  52 NW14G22   30.00F
HARRISON AR    CLOUDY    66  46  48 N16G25    29.93R
NEAR YELLVILLE CLOUDY    67  51  56 NE12      29.91R

......KANSAS AND MISSOURI......

CITY           SKY/WX    TMP DP  RH WIND       PRES   REMARKS
KANSAS CTY INT MOSUNNY   74  32  21 NE14G22   30.05F
DOWNTOWN KC    SUNNY     75  33  21 NE13G23   30.03F
COLUMBIA       PTSUNNY   72  42  34 NE21G32   29.97F
SEDALIA        MOSUNNY   67  37  33 N15       30.01F
ST JOSEPH      SUNNY     75  32  20 NE14G24   30.06F
ST LOUIS       CLOUDY    58  54  86 NE9       29.99S
SPIRIT OF STL  CLOUDY    58  54  86 NE9       29.98S
KIRKSVILLE     CLOUDY    69  37  30 NE14      30.06S
WICHITA        SUNNY     73  42  32 N9        30.07F
TOPEKA         SUNNY     75  36  24 NE9G17    30.05F
OLATHE         SUNNY     74  35  24 N8G16     30.04F

......TENNESSEE......

CITY           SKY/WX    TMP DP  RH WIND       PRES   REMARKS
MEMPHIS        RAIN      57  57 100 W7        29.88S FOG
NASHVILLE      PTSUNNY   68  57  68 NW10      29.88F THUNDER

......ARKANSAS.......

CITY           SKY/WX    TMP DP  RH WIND       PRES   REMARKS
FAYETTEVILLE   CLOUDY    69  50  50 NW15G24   29.97F
FT SMITH       MOSUNNY   71  53  52 NW13      29.96F
LITTLE ROCK    CLOUDY    62  54  74 NW10      29.91S

......OKLAHOMA.......

CITY           SKY/WX    TMP DP  RH WIND       PRES   REMARKS
TULSA          MOSUNNY   73  44  35 N12       30.02F
PONCA CITY     MOSUNNY   72  47  40 NW5       30.06F
MCALESTER      CLOUDY    69  52  54 N13G23    30.02F
OKLAHOMA CITY  MOSUNNY   71  47  42 N12       30.06F

......IOWA............

CITY           SKY/WX    TMP DP  RH WIND       PRES   REMARKS
DES MOINES     MOSUNNY   72  30  21 NE14      30.11F
QUAD CITIES    FAIR      74  33  22 NE15      30.06F

......ILLINOIS........

CITY           SKY/WX    TMP DP  RH WIND       PRES   REMARKS
QUINCY         MOSUNNY   71  37  28 NE18G30   30.01F
CHICAGO        PTSUNNY   61  30  31 NE17      30.11F




USA.gov is the U.S. government's official web portal to all federal, state and local government web resources and services.